Weather History for KNTD - February, 2013

Change the Weather History Date:

Thursday, February 28, 2013

  Actual Average Record
Temperature  
Mean Temperature 60 °F -  
Max Temperature 71 °F 60 °F 75 °F (2009)
Min Temperature 48 °F 43 °F 35 °F (2012)
Degree Days  
Heating Degree Days 6    
Growing Degree Days 10 (Base 50)    
Moisture  
Dew Point 38 °F    
Average Humidity 44    
Maximum Humidity 59    
Minimum Humidity 23    
Precipitation  
Precipitation 0.00 in - - ()
Sea Level Pressure  
Sea Level Pressure 30.30 in    
Wind  
Wind Speed 7 mph (NNW)    
Max Wind Speed 14 mph    
Max Gust Speed 20 mph    
Visibility 7 miles    
Events      
Averages and records for this station are not official NWS values.
T = Trace of Precipitation, MM = Missing Value Source: NWS Daily Summary

Daily Weather History Graph

Daily Weather History Graph

Search for Another Location

Airport or City:

Trip Planner

Search our weather history database for the weather conditions in past years. The results will help you decide how hot, cold, wet, or windy it might be!

Date:

Astronomy

Feb. 28, 2013 Rise Set
Actual Time 6:26 AM PST 5:52 PM PST
Civil Twilight 6:00 AM PST 6:17 PM PST
Nautical Twilight 5:31 AM PST 6:46 PM PST
Astronomical Twilight 5:02 AM PST 7:15 PM PST
Moon 9:12 PM PST (2/28) 7:49 AM PST (2/28)
Length of Visible Light 12h 16m
Length of Day
11h 26m
Waning Gibbous, 90% of the Moon is Illuminated
Feb 28
Waning Gibbous
Mar 4
Last Quarter
Mar 11
New
Mar 19
First Quarter
Mar 27
Full

Hourly Weather History & Observations

Time (PST) Temp. Dew Point Humidity Pressure Visibility Wind Dir Wind Speed Gust Speed Precip Events Conditions
12:54 AM - - N/A% 30.31 in - North 5.8 mph - N/A   Clear
1:54 AM - - N/A% 30.30 in - North 6.9 mph - N/A   Clear
2:54 AM - - N/A% 30.28 in - NNE 6.9 mph - N/A   Clear
3:54 AM - - N/A% 30.28 in - North 6.9 mph - N/A   Clear
4:54 AM - - N/A% 30.29 in - North 6.9 mph - N/A   Clear
5:54 AM 48.2 °F 24.6 °F 40% 30.30 in 7.0 mi North 6.9 mph - N/A   Partly Cloudy
6:54 AM 50.9 °F 22.8 °F 33% 30.30 in 7.0 mi North 9.2 mph - N/A   Partly Cloudy
7:54 AM 56.8 °F 23.7 °F 28% 30.31 in 7.0 mi NNE 5.8 mph - N/A   Clear
8:54 AM 64.8 °F 25.9 °F 23% 30.32 in 7.0 mi North 6.9 mph - N/A   Clear
9:54 AM 69.6 °F 31.5 °F 24% 30.33 in 7.0 mi NNW 6.9 mph - N/A   Clear
10:54 AM 71.6 °F 37.4 °F 29% 30.32 in 7.0 mi NW 6.9 mph - N/A   Clear
11:54 AM 69.8 °F 45.3 °F 41% 30.30 in 7.0 mi WNW 11.5 mph - N/A   Clear
12:54 PM 70.7 °F 37.6 °F 30% 30.28 in 7.0 mi WNW 13.8 mph 19.6 mph N/A   Clear
1:54 PM 66.2 °F 43.3 °F 44% 30.27 in 7.0 mi WNW 13.8 mph - N/A   Clear
2:54 PM 67.6 °F 52.3 °F 58% 30.27 in 7.0 mi SSW 11.5 mph - N/A   Clear
3:54 PM 66.2 °F 47.7 °F 51% 30.27 in 7.0 mi WSW 8.1 mph - N/A   Clear
4:54 PM 62.4 °F 44.6 °F 52% 30.27 in 7.0 mi SW 4.6 mph - N/A   Clear
5:54 PM 59.7 °F 45.1 °F 59% 30.30 in 7.0 mi Calm Calm - N/A   Clear
6:54 PM 60.1 °F 42.8 °F 53% 30.30 in 7.0 mi NNW 3.5 mph - N/A   Clear
7:54 PM 59.5 °F 45.0 °F 59% 30.30 in 7.0 mi NW 5.8 mph - N/A   Clear
8:54 PM 57.7 °F 43.5 °F 59% 30.31 in 7.0 mi NNE 5.8 mph - N/A   Clear
9:54 PM 55.8 °F 38.7 °F 53% 30.31 in 7.0 mi North 5.8 mph - N/A   Clear
10:54 PM 54.9 °F 38.3 °F 54% 30.31 in 7.0 mi North 6.9 mph - N/A   Clear
11:54 PM - - N/A% 30.31 in - North 6.9 mph - N/A   Clear